This demonstration page uses our WeatherBlox Daily Observations layout. Learn more.

Left ArrowRight Arrow

Hourly Observations for October 22, 2018

Temp ( °F °C ) Dew Point ( °F °C ) Humidity (%) Winds ( mph kmh ) Pressure ( in mb ) Visibility ( mi km ) Precip ( " mm )
12:54 am 00:54 Clear 55 12.8 43 6.1 64 64 W 6 9 30.03 1017 10 16.0934 0 0
1:54 am 01:54 Clear 50 10 42 5.6 74 74 Calm 30.04 1017 10 16.0934 0 0
2:54 am 02:54 Clear 45 7.2 40 4.4 83 83 S 6 9 30.04 1017 10 16.0934 0 0
3:54 am 03:54 Clear 43 6.1 40 4.4 89 89 S 6 9 30.04 1017 10 16.0934 0 0
4:54 am 04:54 Clear 44 6.7 41 5 89 89 N 8 13 30.05 1018 10 16.0934 0 0
5:54 am 05:54 Clear 43 6.1 40 4.4 89 89 NNW 6 9 30.06 1018 10 16.0934 0 0
6:54 am 06:54 Clear 38 3.3 36 2.2 93 93 NNW 5 7 30.1 1019 10 16.0934 0 0
7:54 am 07:54 Sunny 37 2.8 35 1.7 93 93 N 6 9 30.11 1020 10 16.0934 0 0
8:54 am 08:54 Sunny 45 7.2 39 3.9 80 80 N 6 9 30.13 1020 10 16.0934 0 0
9:54 am 09:54 Sunny 51 10.6 41 5 69 69 NE 8 13 30.14 1021 10 16.0934 0 0
10:54 am 10:54 Sunny 58 14.4 41 5 53 53 ENE 8 13 30.15 1021 10 16.0934 0 0
11:54 am 11:54 Sunny 63 17.2 40 4.4 43 43 NE 14 22 30.15 1021 10 16.0934 0 0
12:54 pm 12:54 Sunny 66 18.9 38 3.3 36 36 NNE 13 20 30.15 1021 10 16.0934 0 0
1:54 pm 13:54 Sunny 67 19.4 35 1.7 31 31 ENE 10 17 30.15 1021 10 16.0934 0 0
2:54 pm 14:54 Sunny 69 20.6 30 -1.1 23 23 ENE 12 19 30.15 1021 10 16.0934 0 0
3:54 pm 15:54 Sunny 69 20.6 30 -1.1 23 23 ENE 13 20 30.15 1021 10 16.0934 0 0
4:54 pm 16:54 Sunny 68 20 31 -0.6 25 25 NE 6 9 30.15 1021 10 16.0934 0 0
5:54 pm 17:54 Sunny 63 17.2 36 2.2 37 37 NE 7 11 30.16 1021 10 16.0934 0 0
6:54 pm 18:54 Clear 50 10 34 1.1 54 54 NNE 7 11 30.19 1023 10 16.0934 0 0
7:54 pm 19:54 Clear 54 12.2 32 0 43 43 NNW 5 7 30.22 1023 9 14.48406 0 0
8:54 pm 20:54 Clear 48 8.9 34 1.1 58 58 Calm 30.23 1024 10 16.0934 0 0
9:54 pm 21:54 Clear 40 4.4 33 0.6 77 77 NNW 6 9 30.25 1024 10 16.0934 0 0
10:54 pm 22:54 Clear 44 6.7 32 0 63 63 N 6 9 30.26 1025 9 14.48406 0 0
11:54 pm 23:54 Clear 39 3.9 33 0.6 79 79 N 7 11 30.27 1025 10 16.0934 0 0

Powered by AerisWeather